TimeCDT,TemperatureF,Dew PointF,Humidity,Sea Level PressureIn,VisibilityMPH,Wind Direction,Wind SpeedMPH,Gust SpeedMPH,PrecipitationIn,Events,Conditions,WindDirDegrees,DateUTC
12:15 AM,55.4,51.8,88,29.98,7.0,Calm,Calm,-,N/A,,Clear,0,2013-05-19 05:15:00
12:35 AM,55.4,51.8,88,29.97,7.0,Calm,Calm,-,N/A,,Clear,0,2013-05-19 05:35:00
12:55 AM,53.6,51.8,94,29.97,7.0,Calm,Calm,-,N/A,,Clear,0,2013-05-19 05:55:00
1:15 AM,53.6,51.8,94,29.97,5.0,Calm,Calm,-,N/A,,Clear,0,2013-05-19 06:15:00
1:35 AM,53.6,51.8,94,29.97,7.0,Calm,Calm,-,N/A,,Clear,0,2013-05-19 06:35:00
1:55 AM,53.6,51.8,94,29.97,7.0,Calm,Calm,-,N/A,,Clear,0,2013-05-19 06:55:00
2:15 AM,55.4,53.6,94,29.96,7.0,SSE,4.6,-,N/A,,Clear,160,2013-05-19 07:15:00
2:35 AM,55.4,53.6,94,29.96,7.0,SSE,5.8,-,N/A,,Clear,160,2013-05-19 07:35:00
2:55 AM,55.4,53.6,94,29.96,10.0,SE,5.8,-,N/A,,Clear,140,2013-05-19 07:55:00
3:15 AM,55.4,53.6,94,29.97,10.0,South,4.6,-,N/A,,Clear,190,2013-05-19 08:15:00
3:35 AM,55.4,53.6,94,29.96,10.0,SSE,4.6,-,N/A,,Clear,160,2013-05-19 08:35:00
3:55 AM,55.4,53.6,94,29.97,7.0,Calm,Calm,-,N/A,,Clear,0,2013-05-19 08:55:00
4:15 AM,55.4,51.8,88,29.98,7.0,Calm,Calm,-,N/A,,Clear,0,2013-05-19 09:15:00
4:35 AM,53.6,51.8,94,29.98,7.0,Calm,Calm,-,N/A,,Clear,0,2013-05-19 09:35:00
4:55 AM,53.6,51.8,94,29.97,5.0,Calm,Calm,-,N/A,,Clear,0,2013-05-19 09:55:00
5:15 AM,53.6,51.8,94,29.97,5.0,Calm,Calm,-,N/A,,Clear,0,2013-05-19 10:15:00
5:35 AM,53.6,51.8,94,29.97,4.0,Calm,Calm,-,N/A,,Clear,0,2013-05-19 10:35:00
5:45 AM,53.6,51.8,94,29.96,7.0,Calm,Calm,-,N/A,,Clear,0,2013-05-19 10:45:00
7:45 AM,62.6,57.2,82,29.98,10.0,Calm,Calm,-,N/A,,Clear,0,2013-05-19 12:45:00
8:45 AM,66.2,60.8,83,29.98,7.0,South,5.8,-,N/A,,Clear,180,2013-05-19 13:45:00
9:45 AM,71.6,62.6,73,29.97,10.0,South,6.9,-,N/A,,Clear,180,2013-05-19 14:45:00
10:45 AM,73.4,62.6,69,29.94,10.0,SE,6.9,-,N/A,,Clear,130,2013-05-19 15:45:00
11:45 AM,75.2,62.6,65,29.93,10.0,SE,10.4,-,N/A,,Mostly Cloudy,140,2013-05-19 16:45:00
12:45 PM,75.2,62.6,65,29.86,10.0,East,13.8,18.4,N/A,,Mostly Cloudy,100,2013-05-19 17:45:00
3:45 PM,78.8,62.6,57,29.86,10.0,SE,11.5,23.0,N/A,,Scattered Clouds,140,2013-05-19 20:45:00
4:45 PM,80.6,64.4,58,29.83,10.0,SE,13.8,-,N/A,,Scattered Clouds,130,2013-05-19 21:45:00
5:45 PM,78.8,62.6,57,29.81,10.0,ESE,11.5,-,N/A,,Scattered Clouds,120,2013-05-19 22:45:00
6:45 PM,75.2,62.6,65,29.80,10.0,SE,13.8,-,N/A,,Scattered Clouds,130,2013-05-19 23:45:00
7:45 PM,73.4,60.8,65,29.80,10.0,SE,13.8,-,N/A,,Clear,140,2013-05-20 00:45:00
8:45 PM,71.6,60.8,69,29.80,10.0,ESE,9.2,-,N/A,,Clear,120,2013-05-20 01:45:00
9:15 PM,69.8,60.8,73,29.79,10.0,ESE,6.9,-,N/A,,Clear,120,2013-05-20 02:15:00
9:35 PM,69.8,59.0,68,29.81,10.0,SE,6.9,-,N/A,,Clear,140,2013-05-20 02:35:00
9:55 PM,69.8,59.0,68,29.81,10.0,SE,6.9,-,N/A,,Clear,140,2013-05-20 02:55:00
10:15 PM,69.8,59.0,68,29.86,10.0,SSW,11.5,19.6,N/A,,Scattered Clouds,200,2013-05-20 03:15:00
10:35 PM,69.8,59.0,68,29.83,10.0,SSE,6.9,16.1,N/A,,Scattered Clouds,150,2013-05-20 03:35:00
11:15 PM,68.0,59.0,73,29.76,10.0,ESE,9.2,-,N/A,,Scattered Clouds,120,2013-05-20 04:15:00
11:35 PM,66.2,59.0,78,29.75,10.0,SSE,8.1,-,N/A,,Clear,150,2013-05-20 04:35:00
11:55 PM,68.0,59.0,73,29.76,10.0,SE,9.2,20.7,N/A,,Clear,140,2013-05-20 04:55:00